sat.trackr.live / text

‹ back to catalog

STARLINK-34075

NORAD 63917 · 2025-095AD

PAYLOAD ACTIVE UNKNOWN

§ Identity

Operator
Country
US
Launch date
2025-05-10
Launch site
AFETR
Launch vehicle
Mass (kg)
RCS (m²)

Purposes: comms

External: N2YO · Heavens-Above · Gunter

§ Orbital elements

Epoch: 2026-05-25T03:34:08.258880Z

Period
94.27 min
Inclination
43.0016°
Eccentricity
0.0001339
Mean motion
15.27605041 rev/d
Perigee alt
482.1 km
Apogee alt
483.9 km
Semi-major
6,861.1 km
B*
5.6043e-4
RAAN
104.1994°
Arg perigee
264.7630°
Mean anomaly
95.3069°
Rev number
5,947

§ Raw data

STARLINK-340751 63917U 25095AD  26145.14870670  .00015203  00000+0  56043-3 0  99992 63917  43.0016 104.1994 0001339 264.7630  95.3069 15.27605041 59472

JSON: /api/v1/satellites/63917 · /tle

For live sub-satellite position, see the globe view (requires WebGL).

§ Visibility from observer

Set your observer location to see the next 7 days of passes ≥ 10°. The values pass through the URL so the page stays shareable.

No JS? Fill the form by hand. The geolocation button needs JavaScript.